[[{"header":{"parameterUnit":"m.s-1","parameterCategory":1,"la1":30.2991,"la2":30.254,"lo1":-89.0895,"lo2":-89.0444,"dy":0.0017,"dx":0.0017,"nx":28,"ny":28,"refTime":"2024-07-19T21:00:00:Z","depth":0,"parameterNumber":2,"parameterNumberName":"U-component_of_WINDS"},"data":[0,0,0,0,0,0,0,0,0,0,0,0,0,0,0,0,0,0,0,0,0,0,0,0,0,0,0,0,0,0,0,0,0,0,0,0,0,0,0,0,0,0,0,0,0,0,0,0,0,0,0,0,0,0,0,0,0,0,1.3822,1.3821,0,1.3751,1.375,1.3749,1.3651,1.365,1.3648,1.3647,1.3575,1.3575,1.3574,0,0,0,0,0,0,0,0,0,0,0,0,0,1.3872,1.3872,1.3822,1.3821,1.382,1.3751,1.375,1.3749,1.3652,1.365,1.3648,1.3646,1.3575,1.3575,1.3574,0,0,0,0,0,0,0,0,0,0,0,0,0,1.3831,1.3872,1.3822,1.3763,1.3757,1.3751,1.375,1.3748,1.3652,1.365,1.3647,1.3645,1.3575,1.3575,1.3574,1.362,0,0,1.3572,1.3572,0,0,0,0,0,0,0,0,1.3833,1.3829,1.3773,1.3767,1.3761,1.3707,1.3741,1.3705,1.3653,1.3692,1.3647,1.3644,1.3621,1.3617,1.3609,1.3617,1.3613,1.3572,1.3572,1.3572,1.3572,0,0,0,0,0,0,0,1.3836,1.3831,1.3794,1.3772,1.3765,1.374,1.3731,1.3734,1.3671,1.3688,1.3681,1.3674,1.3617,1.3609,1.3606,1.3612,1.3572,1.3572,1.3571,1.3571,1.3649,1.3651,0,0,0,0,0,0,1.3848,1.3834,1.3796,1.3791,1.3791,1.3741,1.3731,1.3727,1.3671,1.366,1.3676,1.367,1.3612,1.3607,1.3603,1.365,1.3572,1.3571,1.3571,1.3647,1.365,1.3652,0,0,0,0,0,0,1.3849,1.3845,1.3799,1.3811,1.3803,1.3743,1.3739,1.3727,1.3719,1.3662,1.365,1.368,1.3609,1.3604,1.3615,1.3646,1.3571,1.357,1.3644,1.3648,1.3651,1.3745,0,0,0,0,0,0,1.3851,1.3846,1.3864,1.3812,1.3803,1.3813,1.3741,1.3727,1.3718,1.3709,1.3662,1.3652,1.3607,1.3617,1.3615,1.3644,1.357,1.3641,1.3646,1.365,1.3739,1.3752,1.3762,0,0,0,0,0,1.3853,1.3895,1.3865,1.3861,1.3823,1.3815,1.3809,1.3757,1.3721,1.3737,1.37,1.3653,1.3643,1.3619,1.3616,1.3645,1.3639,1.3644,1.365,1.3734,1.3749,1.3762,0,0,0,0,0,0,1.3953,1.3887,1.3854,1.388,1.3853,1.3798,1.3817,1.3775,1.3759,1.3752,1.3687,1.3677,1.3696,1.3672,1.3645,1.3684,1.3634,1.3639,1.3699,1.3713,1.3724,1.3729,1.3569,0,0,0,0,0,1.3978,1.3976,1.3919,1.3947,1.3935,1.3879,1.3873,1.3835,1.3805,1.3794,1.3757,1.3731,1.372,1.3716,1.3704,1.3735,1.3722,1.3754,1.3766,1.3775,1.378,1.3791,1.3803,1.367,1.367,1.367,0,0,1.4029,1.3993,1.3996,1.3966,1.3941,1.394,1.387,1.3873,1.3871,1.3794,1.3801,1.3774,1.3739,1.376,1.3767,1.374,1.3814,1.3782,1.3791,1.379,1.3798,1.381,1.3822,1.3674,1.3673,1.3673,0,0,1.4122,1.4096,1.4114,1.409,1.4053,1.4014,1.4019,1.3969,1.3947,1.3954,1.3894,1.3891,1.3877,1.3853,1.384,1.392,1.3875,1.3918,1.3978,1.3989,1.4,1.4009,1.4034,1.4044,1.3923,1.3923,1.3923,0,1.4191,1.4187,1.413,1.4135,1.4122,1.405,1.4068,1.4047,1.4009,1.4001,1.3971,1.3948,1.3921,1.3933,1.3952,1.3944,1.3945,1.3922,1.4003,1.4011,1.4019,1.4042,1.4052,1.3928,1.3928,1.3927,1.3927,0,1.4272,1.427,1.4289,1.4251,1.4241,1.4253,1.4195,1.4191,1.4153,1.4117,1.4122,1.4086,1.4063,1.4064,1.4028,1.407,1.4054,1.4015,1.3963,1.4038,1.4058,1.4067,1.3936,1.3934,1.3932,1.3931,0,0,1.4426,1.4354,1.4362,1.4342,1.4294,1.4291,1.4298,1.4275,1.4271,1.4247,1.4249,1.4237,1.4199,1.4184,1.4144,1.4154,1.4215,1.4113,1.4111,1.4131,1.4255,1.4283,1.4295,1.4186,1.4187,1.4188,1.4257,0,1.4508,1.4515,1.4462,1.4483,1.4479,1.441,1.4415,1.4386,1.4352,1.4343,1.4305,1.4296,1.4249,1.4238,1.4246,1.4206,1.4239,1.4201,1.4185,1.4186,1.4194,1.4306,1.4336,1.4403,1.4265,1.4266,1.4267,0,1.4604,1.4582,1.4603,1.455,1.4546,1.4552,1.4524,1.4517,1.4481,1.4456,1.4437,1.439,1.4391,1.4342,1.4342,1.4317,1.4307,1.4287,1.4288,1.4283,1.423,1.4302,1.4423,1.4432,1.428,1.4279,1.4278,0,1.4711,1.4687,1.4694,1.468,1.462,1.4625,1.46,1.4562,1.455,1.4526,1.4517,1.4495,1.4482,1.4464,1.4412,1.4382,1.4416,1.4364,1.4393,1.4394,1.4403,1.4402,1.4522,1.4401,1.4401,1.44,1.44,0,1.4806,1.4821,1.4741,1.4746,1.4759,1.4697,1.4712,1.468,1.4646,1.4642,1.4582,1.4579,1.4511,1.4501,1.446,1.4463,1.4459,1.4437,1.4425,1.4441,1.4443,1.4432,1.4426,1.4403,1.4402,1.4402,1.4401,0,1.4927,1.4875,1.4878,1.482,1.4805,1.4817,1.4767,1.4768,1.4729,1.4725,1.4721,1.466,1.4644,1.459,1.4562,1.4534,1.4549,1.4529,1.4561,1.4553,1.4584,1.4581,1.47,1.471,1.4585,1.4586,1.4587,0,1.499,1.4999,1.4941,1.4934,1.4911,1.4901,1.4887,1.4826,1.4815,1.4772,1.4778,1.4757,1.4737,1.4714,1.4668,1.4644,1.4621,1.4664,1.4618,1.4632,1.4619,1.4618,1.4617,1.4674,1.4676,1.4677,1.4678,0,1.5107,1.508,1.5063,1.5037,1.5022,1.4999,1.4972,1.4969,1.49,1.489,1.4873,1.4857,1.4826,1.4805,1.4773,1.4746,1.47,1.4693,1.4698,1.4713,1.473,1.4718,1.4586,1.4691,1.469,1.4689,1.4688,1.4688,1.5199,1.5202,1.516,1.5143,1.5116,1.5091,1.5088,1.5048,1.5032,1.5001,1.4966,1.4952,1.4912,1.4865,1.4841,1.4828,1.4803,1.4812,1.4813,1.4815,1.4822,1.4734,1.4823,1.4822,1.4822,1.4821,1.4821,0,1.531,1.5279,1.5263,1.5226,1.5212,1.5169,1.5136,1.5126,1.5114,1.5081,1.5061,1.5039,1.5018,1.4968,1.4941,1.494,1.4918,1.4935,1.4934,1.4927,1.4847,1.4844,1.4953,1.4953,1.4953,1.4953,1.4953,1.4953,1.5365,1.5367,1.5335,1.5322,1.5291,1.5276,1.526,1.5236,1.5208,1.5186,1.5167,1.5135,1.5094,1.5063,1.5041,1.5027,1.5018,1.5042,1.5021,1.4946,1.4934,1.4922,1.4918,1.5041,1.5041,1.5102,1.5102,1.5103]},{"header":{"parameterUnit":"m.s-1","parameterCategory":1,"la1":30.2991,"la2":30.254,"lo1":-89.0895,"lo2":-89.0444,"dy":0.0017,"dx":0.0017,"nx":28,"ny":28,"refTime":"2024-07-19T21:00:00:Z","depth":0,"parameterNumber":3,"parameterNumberName":"V-component_of_WINDS"},"data":[0,0,0,0,0,0,0,0,0,0,0,0,0,0,0,0,0,0,0,0,0,0,0,0,0,0,0,0,0,0,0,0,0,0,0,0,0,0,0,0,0,0,0,0,0,0,0,0,0,0,0,0,0,0,0,0,0,0,3.7595,3.7597,0,3.7746,3.7748,3.775,3.7767,3.7766,3.7764,3.7763,3.7917,3.7922,3.7928,0,0,0,0,0,0,0,0,0,0,0,0,0,3.732,3.7325,3.7595,3.7597,3.7599,3.7746,3.7748,3.775,3.7767,3.7766,3.7764,3.7762,3.7915,3.7922,3.7928,0,0,0,0,0,0,0,0,0,0,0,0,0,3.7452,3.7326,3.7595,3.7625,3.7629,3.7746,3.7748,3.7751,3.7768,3.7766,3.7763,3.7761,3.7913,3.7921,3.7929,3.8026,0,0,3.7955,3.7958,0,0,0,0,0,0,0,0,3.7444,3.7462,3.7619,3.7623,3.7628,3.7736,3.7708,3.7843,3.7768,3.7715,3.7763,3.776,3.7858,3.7871,3.7904,3.8033,3.8039,3.7955,3.796,3.7964,3.7966,0,0,0,0,0,0,0,3.7435,3.7456,3.7655,3.7621,3.7627,3.7631,3.7647,3.7733,3.7798,3.772,3.7721,3.7739,3.7861,3.7896,3.7908,3.8042,3.7955,3.7962,3.7967,3.7971,3.8255,3.8258,0,0,0,0,0,0,3.742,3.7448,3.765,3.7659,3.7529,3.7638,3.7656,3.7703,3.7797,3.7809,3.7741,3.7739,3.7883,3.7898,3.7914,3.8032,3.7964,3.7971,3.7976,3.8253,3.8256,3.8259,0,0,0,0,0,0,3.7414,3.7438,3.7644,3.7554,3.7581,3.7645,3.7698,3.7708,3.7743,3.7813,3.7824,3.7766,3.7882,3.7902,3.7997,3.8037,3.7975,3.7983,3.825,3.8254,3.8257,3.8269,0,0,0,0,0,0,3.7407,3.7436,3.7474,3.7555,3.7585,3.7726,3.7701,3.7712,3.7758,3.7757,3.7839,3.785,3.7882,3.7985,3.8006,3.8047,3.7989,3.8246,3.8252,3.8256,3.8265,3.8272,3.8279,0,0,0,0,0,3.7397,3.7471,3.7476,3.75,3.7634,3.7728,3.7745,3.778,3.7761,3.7799,3.7843,3.7848,3.803,3.7995,3.8018,3.8063,3.8244,3.825,3.8256,3.8262,3.8271,3.8279,0,0,0,0,0,0,3.7393,3.7482,3.7488,3.7591,3.7652,3.7731,3.778,3.7789,3.7856,3.7853,3.7893,3.7911,3.8005,3.8044,3.8003,3.816,3.8135,3.8146,3.8131,3.8141,3.8147,3.8136,3.7996,0,0,0,0,0,3.7404,3.7473,3.7548,3.7631,3.7661,3.7715,3.7757,3.7779,3.7843,3.7869,3.7921,3.7982,3.8053,3.8099,3.8169,3.8271,3.8288,3.8313,3.832,3.8325,3.8334,3.839,3.8401,3.8278,3.8278,3.8278,0,0,3.7428,3.7485,3.7527,3.7632,3.7681,3.7751,3.7737,3.7812,3.7864,3.7881,3.7973,3.8013,3.8085,3.8184,3.823,3.8219,3.8372,3.8333,3.8337,3.8343,3.8397,3.8409,3.8419,3.8282,3.8281,3.8281,0,0,3.7507,3.7558,3.7632,3.7682,3.7757,3.7792,3.781,3.7888,3.7915,3.8009,3.8022,3.8085,3.8206,3.8257,3.8298,3.8395,3.8402,3.8417,3.8453,3.8506,3.8516,3.8525,3.8558,3.857,3.8425,3.8425,3.8425,0,3.7527,3.7633,3.7669,3.7744,3.7789,3.7807,3.7883,3.7929,3.8023,3.8054,3.804,3.8193,3.8243,3.8353,3.8376,3.841,3.8431,3.8407,3.8512,3.8521,3.853,3.8562,3.8575,3.8427,3.8426,3.8426,3.8426,0,3.7654,3.7727,3.7778,3.7868,3.7919,3.7994,3.8041,3.8088,3.8105,3.8142,3.8237,3.8297,3.8378,3.8406,3.8424,3.8519,3.851,3.8504,3.8479,3.8542,3.8573,3.8586,3.8428,3.8428,3.8428,3.8427,0,0,3.7735,3.7843,3.7861,3.7901,3.7985,3.8042,3.8117,3.8197,3.8236,3.83,3.8363,3.8466,3.846,3.8508,3.8531,3.8578,3.865,3.8567,3.8569,3.8579,3.8757,3.876,3.8774,3.8655,3.8658,3.866,3.8751,0,3.7822,3.7956,3.799,3.8104,3.8172,3.819,3.8255,3.8313,3.8349,3.8412,3.8451,3.8523,3.8511,3.8539,3.8587,3.8631,3.8686,3.8625,3.8714,3.8716,3.8694,3.8791,3.8794,3.8877,3.8763,3.8765,3.8767,0,3.7942,3.8008,3.8129,3.8202,3.8232,3.829,3.8365,3.8425,3.8491,3.8514,3.8566,3.8584,3.8663,3.8634,3.8742,3.87,3.8738,3.8765,3.8769,3.8778,3.8745,3.8801,3.8905,3.8917,3.8787,3.8785,3.8784,0,3.7988,3.8107,3.8194,3.8228,3.8317,3.8357,3.8395,3.8459,3.8504,3.857,3.8599,3.8673,3.8714,3.877,3.8808,3.8784,3.8912,3.8887,3.8933,3.8932,3.8958,3.8956,3.9069,3.8985,3.8985,3.8984,3.8984,0,3.8081,3.8154,3.8215,3.8269,3.835,3.8389,3.8468,3.8508,3.8564,3.8625,3.8646,3.8702,3.875,3.8813,3.8843,3.8927,3.8945,3.8965,3.8972,3.8963,3.896,3.8988,3.8983,3.8988,3.8987,3.8986,3.8986,0,3.8145,3.8189,3.8285,3.8361,3.8382,3.8438,3.8503,3.8556,3.8592,3.8669,3.8689,3.8746,3.8822,3.8865,3.8961,3.8981,3.9074,3.9079,3.9051,3.9054,3.9097,3.9092,3.9231,3.925,3.9154,3.9155,3.9155,0,3.8202,3.8258,3.8339,3.8381,3.8421,3.8489,3.8535,3.8574,3.8621,3.87,3.8743,3.882,3.8883,3.9002,3.9052,3.9125,3.9131,3.9175,3.9142,3.9131,3.913,3.9126,3.9131,3.918,3.9181,3.9181,3.9182,0,3.8297,3.8315,3.8381,3.8454,3.8508,3.8567,3.8626,3.866,3.8709,3.8761,3.8838,3.8887,3.8984,3.9059,3.9136,3.9176,3.9187,3.9192,3.9206,3.9197,3.9178,3.9187,3.9065,3.9188,3.9188,3.9187,3.9187,3.9187,3.8358,3.8408,3.8473,3.8545,3.8593,3.8648,3.87,3.8743,3.8808,3.8889,3.8909,3.899,3.9054,3.9158,3.92,3.9263,3.9256,3.9276,3.9281,3.9286,3.9286,3.9169,3.9277,3.9277,3.9277,3.9277,3.9277,0,3.8453,3.8495,3.8561,3.8642,3.8699,3.8704,3.877,3.8816,3.8887,3.8946,3.9007,3.9095,3.9168,3.9224,3.9299,3.9339,3.9346,3.9357,3.9354,3.9363,3.9289,3.9269,3.935,3.935,3.935,3.935,3.935,3.935,3.8509,3.8594,3.862,3.8728,3.8771,3.8849,3.8886,3.8936,3.8983,3.908,3.9141,3.9176,3.9234,3.9313,3.938,3.9394,3.9421,3.9431,3.9446,3.9376,3.9368,3.936,3.9342,3.9436,3.9437,3.9514,3.9515,3.9515]}]]